Weather History for Columbus, OH

Change the Weather History Date:

Wednesday, August 8, 2012

  Actual Average Record
Temperature  
Mean Temperature 81 °F 75 °F  
Max Temperature 96 °F 84 °F 96 °F (2007)
Min Temperature 66 °F 65 °F 46 °F (1989)
Degree Days  
Heating Degree Days 0 0  
Month to date heating degree days 0 0  
Since 1 June heating degree days 9 19  
Since 1 July heating degree days 0 0  
Cooling Degree Days 16 10  
Month to date cooling degree days 125 80  
Year to date cooling degree days 1098 688  
Since 1 June cooling degree days 878 606  
Growing Degree Days 31 (Base 50)    
Moisture  
Dew Point 61 °F    
Average Humidity 52    
Maximum Humidity 76    
Minimum Humidity 28    
Precipitation  
Precipitation T in 0.11 in 1.39 in (1996)
Month to date precipitation 0.06 0.92  
Year to date precipitation 21.14 25.29  
Snow  
Snow 0.00 in 0.00 in - ()
Month to date snowfall 0.0 0.0  
Since 1 June snowfall 0.0 0.0  
Since 1 July snowfall 0.0 0.0  
Snow Depth 0.00 in    
Sea Level Pressure  
Sea Level Pressure 29.93 in    
Wind  
Wind Speed 6 mph (SSW)    
Max Wind Speed 32 mph    
Max Gust Speed 40 mph    
Visibility 10 miles    
Events Rain , Thunderstorm    
T = Trace of Precipitation, MM = Missing Value Source: NWS Daily Summary

Daily Weather History Graph

Daily Weather History Graph

Search for Another Location

Airport:

Trip Planner

Search our weather history database for the weather conditions in past years. The results will help you decide how hot, cold, wet, or windy it might be!

Date:

Astronomy

Aug. 08, 2012 Rise Set
Actual Time 6:36 AM EDT 8:36 PM EDT
Civil Twilight 6:07 AM EDT 9:06 PM EDT
Nautical Twilight 5:31 AM EDT 9:42 PM EDT
Astronomical Twilight 4:52 AM EDT 10:20 PM EDT
Moon 11:50 PM EDT (8/8) 1:21 PM EDT (8/8)
Length of Visible Light 14h 58m
Length of Day
13h 59m
Waning Gibbous, 61% of the Moon is Illuminated
Aug 8
Waning Gibbous
Aug 9
Last Quarter
Aug 17
New
Aug 24
First Quarter
Aug 31
Full

Hourly Weather History & Observations

Time (EDT) Temp. Heat Index Dew Point Humidity Pressure Visibility Wind Dir Wind Speed Gust Speed Precip Events Conditions
12:51 AM 73.0 °F - 57.0 °F 57% 29.97 in 10.0 mi Calm Calm - N/A   Clear
1:51 AM 71.1 °F - 57.9 °F 63% 29.97 in 10.0 mi Calm Calm - N/A   Clear
2:51 AM 69.1 °F - 59.0 °F 70% 29.95 in 10.0 mi Calm Calm - N/A   Clear
3:51 AM 69.1 °F - 60.1 °F 73% 29.94 in 10.0 mi Calm Calm - N/A   Clear
4:51 AM 69.1 °F - 57.9 °F 68% 29.94 in 10.0 mi Calm Calm - N/A   Clear
5:51 AM 68.0 °F - 59.0 °F 73% 29.95 in 10.0 mi Calm Calm - N/A   Clear
6:51 AM 68.0 °F - 61.0 °F 78% 29.96 in 10.0 mi SSE 3.5 mph - N/A   Clear
7:51 AM 72.0 °F - 61.0 °F 68% 29.96 in 10.0 mi Calm Calm - N/A   Clear
8:51 AM 75.9 °F - 62.1 °F 62% 29.98 in 10.0 mi SSW 5.8 mph - N/A   Clear
9:51 AM 80.1 °F 81.5 °F 63.0 °F 56% 29.98 in 10.0 mi Calm Calm - N/A   Clear
10:51 AM 84.9 °F 85.9 °F 63.0 °F 48% 29.97 in 10.0 mi SSW 5.8 mph - N/A   Scattered Clouds
11:51 AM 90.0 °F 89.1 °F 59.0 °F 35% 29.96 in 10.0 mi South 5.8 mph - N/A   Mostly Cloudy
12:51 PM 91.9 °F 90.8 °F 57.9 °F 32% 29.94 in 10.0 mi SSW 10.4 mph - N/A   Mostly Cloudy
1:51 PM 95.0 °F 94.0 °F 57.9 °F 29% 29.93 in 10.0 mi West 13.8 mph 20.7 mph N/A   Mostly Cloudy
2:51 PM 91.9 °F 90.8 °F 57.9 °F 32% 29.92 in 10.0 mi West 15.0 mph 19.6 mph N/A   Mostly Cloudy
3:51 PM 95.0 °F 94.4 °F 59.0 °F 30% 29.90 in 10.0 mi WNW 13.8 mph 21.9 mph N/A   Mostly Cloudy
4:08 PM 87.8 °F 88.5 °F 62.6 °F 43% 29.93 in 7.0 mi WSW 29.9 mph 40.3 mph 0.00 in Rain , Thunderstorm Light Thunderstorms and Rain
4:22 PM 82.4 °F 82.9 °F 60.8 °F 48% 29.93 in 7.0 mi SSW 11.5 mph - 0.00 in Thunderstorm Thunderstorm
4:33 PM 78.8 °F - 64.4 °F 61% 29.92 in 10.0 mi SSW 19.6 mph 31.1 mph 0.00 in   Mostly Cloudy
4:51 PM 79.0 °F - 63.0 °F 58% 29.92 in 10.0 mi SSW 26.5 mph 34.5 mph 0.00 in   Mostly Cloudy
5:51 PM 86.0 °F 86.1 °F 61.0 °F 43% 29.89 in 10.0 mi SSW 8.1 mph - N/A   Mostly Cloudy
6:51 PM 91.0 °F 90.9 °F 61.0 °F 36% 29.88 in 10.0 mi West 10.4 mph 16.1 mph N/A   Scattered Clouds
7:51 PM 90.0 °F 90.0 °F 61.0 °F 38% 29.89 in 10.0 mi NW 10.4 mph - N/A   Scattered Clouds
8:51 PM 84.0 °F 86.3 °F 66.0 °F 55% 29.89 in 10.0 mi SSW 5.8 mph - N/A   Scattered Clouds
9:51 PM 78.1 °F - 66.9 °F 68% 29.91 in 10.0 mi ESE 4.6 mph - N/A   Scattered Clouds
10:51 PM 77.0 °F - 68.0 °F 74% 29.92 in 10.0 mi ESE 3.5 mph - N/A   Scattered Clouds
11:51 PM 75.0 °F - 66.9 °F 76% 29.91 in 10.0 mi ESE 4.6 mph - N/A   Partly Cloudy